Flag for U.S.A. Weather past 2 weeks in Harrisburg, Pennsylvania, U.S.A.

Now
64 °F

Fog.


Feels Like: 64 °F
Forecast: 65 / 82 °F
Wind: No wind

Location: Capital City Airport

Current Time: Aug 22, 2014 at 4:58:08 AM

Latest Report: Aug 22, 2014 at 4:03 AM


Visibility: 4 mi

Pressure: 29.98 "Hg

Humidity: 97%

Dew point: 63 °F

Location of HarrisburgLocation

Historic Weather in Harrisburg — Graph

°F

Harrisburg temperature yesterday

Maximum temperature yesterday: 84 °F (at 1:56 PM)
Minimum temperature yesterday: 65 °F (at 2:56 AM)
Average temperature yesterday: 72 °F

Past Weeks' High & Low Weather Summary

 TemperatureHumidityPressure
High84 °F (Aug 10, 3:56 PM)97% (Aug 12, 7:00 PM)30.16 "Hg (Aug 12, 7:00 PM)
Low50 °F (Aug 16, 5:56 AM)31% (Aug 14, 5:56 PM)29.76 "Hg (Aug 13, 3:56 AM)
Average69 °F71%29.98 "Hg
* Reported Aug 7 2:56 AM — Aug 22 2:56 AM, Harrisburg, Weather by CustomWeather, © 2014

Note: Actual official high and low records may vary slightly from our data, if they occured in-between our weather recording intervals... More about our weather records

Advertising

Harrisburg weather history for previous 24 hours

 ConditionsComfort  
Time TempWeatherWind HumidityBarometerVisibility
2:56 AM
Aug 22
64 °FFog.5 mph97%29.98 "Hg5 mi
1:56 AM65 °FFog.3 mph97%29.98 "Hg5 mi
12:56 AM66 °FFog.3 mph96%29.99 "Hg5 mi
11:56 PM
Aug 21
67 °FFog.No wind97%30.00 "Hg5 mi
10:56 PM68 °FFog.No wind96%30.00 "Hg6 mi
9:56 PM67 °FFog.3 mph97%30.00 "Hg6 mi
8:56 PM68 °FClear.5 mph93%29.98 "Hg10 mi
7:56 PM70 °FPartly sunny.No wind90%29.98 "Hg10 mi
6:56 PM71 °FPartly sunny.8 mph90%29.99 "Hg10 mi
5:56 PM72 °FLight rain. More clouds than sun.5 mph84%29.98 "Hg10 mi
5:04 PM73 °FThunderstorms. Cloudy.14 mph81%30.00 "Hg2 mi
4:56 PM74 °FStrong thunderstorms. Partly sunny.5 mph76%30.00 "Hg1 mi
3:56 PM80 °FSunny.5 mph69%29.98 "Hg10 mi
2:56 PM83 °FPassing clouds.No wind59%29.98 "Hg10 mi
1:56 PM84 °FPassing clouds.No wind61%30.00 "Hg10 mi
12:56 PM82 °FScattered clouds.5 mph65%30.02 "Hg10 mi
11:56 AM79 °FPassing clouds.3 mph69%30.03 "Hg10 mi
10:56 AM77 °FSunny.5 mph74%30.04 "Hg10 mi
9:56 AM74 °FSunny.3 mph79%30.04 "Hg10 mi
8:56 AM73 °FSunny.No wind76%30.05 "Hg10 mi
7:56 AM69 °FSunny.No wind84%30.05 "Hg10 mi
6:56 AM65 °FPassing clouds.3 mph97%30.04 "Hg8 mi
5:56 AM65 °FClear.3 mph97%30.01 "Hg9 mi
4:56 AM67 °FPassing clouds.3 mph90%29.99 "Hg10 mi
Weather by CustomWeather, © 2014

See weather overviewHow to use our weather pages